Location: Newark
(42.9277°N, 71.8621°W)
Time: 07:57:06
(UTC+00:00)

Courier 1B - All Passes

Search period start: 26 May 2020 00:00
Search period end: 05 June 2020 00:00
Orbit: 963 x 1209 km, 28.3° (Epoch: 25 May)

Date Brightness Start Highest point End Pass type
(mag) Time Alt. Az. Time Alt. Az. Time Alt. Az.
26 May - 04:33:40 10° SSE 04:34:07 10° SSE 04:34:33 10° SSE visible
26 May - 06:21:30 10° SSW 06:27:09 22° SSE 06:32:47 10° ESE visible
26 May - 08:14:09 10° SW 08:20:27 27° S 08:26:38 10° SE visible
26 May - 10:08:18 10° WSW 10:13:41 21° SSW 10:18:56 10° SSE daylight
27 May - 05:28:22 10° SSW 05:33:29 19° SSE 05:38:38 10° ESE visible
27 May - 07:20:27 10° SW 07:26:44 27° S 07:32:58 10° ESE visible
27 May - 09:14:11 10° WSW 09:20:03 23° SSW 09:25:47 10° SE daylight
27 May - 11:10:27 10° SW 11:13:03 12° SSW 11:15:37 10° S daylight
28 May - 04:35:34 10° SSW 04:39:52 16° SSE 04:44:11 10° SE visible
28 May - 06:26:53 10° SW 06:33:01 26° S 06:39:11 10° ESE visible
28 May - 08:20:12 10° WSW 08:26:22 25° S 08:32:26 10° SE visible
28 May - 10:15:18 10° SW 10:19:30 15° SSW 10:23:37 10° S daylight
29 May - 03:43:26 10° S 03:46:16 12° SSE 03:49:09 10° SE night (unlit)
29 May - 05:33:29 10° SW 05:39:20 24° SSE 05:45:15 10° ESE visible
29 May - 07:26:22 10° WSW 07:32:39 27° S 07:38:55 10° SE visible
29 May - 09:20:48 10° WSW 09:25:53 19° SSW 09:30:54 10° SSE daylight
30 May - 04:40:16 10° SSW 04:45:40 21° SSE 04:51:10 10° ESE visible
30 May - 06:32:40 10° SW 06:38:56 27° S 06:45:15 10° SE visible
30 May - 08:26:35 10° WSW 08:32:14 22° SSW 08:37:50 10° SSE visible
31 May - 03:47:19 10° SSW 03:52:03 18° SSE 03:56:52 10° ESE night (unlit)
31 May - 05:39:05 10° SW 05:45:13 26° S 05:51:29 10° ESE visible
31 May - 07:32:35 10° WSW 07:38:33 24° S 07:44:32 10° SE visible
31 May - 09:28:17 10° SW 09:31:39 13° SSW 09:35:02 10° S daylight
01 Jun - 02:54:48 10° S 02:58:28 14° SSE 03:02:13 10° SE night (unlit)
01 Jun - 04:45:39 10° SW 04:51:32 25° S 04:57:34 10° ESE visible
01 Jun - 06:38:44 10° WSW 06:44:51 26° S 06:51:03 10° SE visible
01 Jun - 08:33:30 10° WSW 08:38:04 17° SSW 08:42:36 10° SSE visible
02 Jun - 02:03:22 10° SSE 02:04:56 11° SSE 02:06:32 10° SE visible
02 Jun - 03:52:24 10° SW 03:57:53 22° SSE 04:03:32 10° ESE night (unlit)
02 Jun - 05:45:02 10° SW 05:51:09 27° S 05:57:24 10° SE visible
02 Jun - 07:39:11 10° WSW 07:44:24 20° SSW 07:49:40 10° SSE visible
03 Jun - 02:59:21 10° SSW 03:04:16 19° SSE 03:09:21 10° ESE visible
03 Jun - 04:51:27 10° SW 04:57:27 26° S 05:03:39 10° SE visible
03 Jun - 06:45:07 10° WSW 06:50:45 22° SSW 06:56:27 10° SE visible
03 Jun - 08:42:06 10° SW 08:43:49 11° SSW 08:45:32 10° SSW daylight
04 Jun - 02:06:37 10° SSW 02:10:43 16° SSE 02:14:56 10° SE visible
04 Jun - 03:58:00 10° SW 04:03:47 25° S 04:09:47 10° ESE visible
04 Jun - 05:51:15 10° WSW 05:57:04 24° S 06:03:01 10° SE visible
04 Jun - 07:46:33 10° SW 07:50:13 14° SSW 07:53:55 10° S visible
